"Pseudo-MPEC" for W06168
Created 2023 Nov 28 14:22:09 UT using Find_Orb
Click here for an explanation of pseudo-MPECs
Astrometry: W06168 * C2023 11 18^?woF7RsVT*
AstrometryXo4
redacted;(bx3d6b9jf^NZ*Xs$/B
O18 W06168 C2023 11 18JNwV('4w
click'YdYl
here)I.B:tZh/d\h/Xm/,j?ir-iI0J(N*t
O18 W06168 C2023 11 18W-(SGW3i@R
foriV@R43a@$Z/PhyyR#'-U8;7EnY
explanation,h
O18 Station data: (O18) WFST, Lenghu (N38.607601 E93.895220). Orbital elements: W06168 Perihelion 2023 Dec 11.97121 +/- 41 TT = 23:18:32 (JD 2460290.47121) Epoch 2023 Nov 19.0 TT = JDT 2460267.5 Earth MOID: 0.1760 AutoNEOCP M 351.86223355 +/- 18 (J2000 ecliptic) n 0.35425935 +/- 0.287 Peri. 194.36260 +/- 60 a 1.97813154 +/- 1.07 Node 241.50882 +/- 51 e 0.4134075 +/- 0.25 Incl. 4.26947 +/- 2.7 P 2.78 H 24.98 G 0.15 U 11.9 SR q 1.16035707 +/- 0.276 Q 2.79590600 +/- 54.9 From 3 observations 2023 Nov. 18 (15.7 min); mean residual 0".03
Residuals in arcseconds: 231118 O18 .03+ .00 231118 O18 .05- .00 231118 O18 .03+ .00 Ephemerides (geocentric): Date (UTC) HH RA Dec delta r elong mag " sig PA ---- -------- ------------ ------------ ------ ------ ----- --- -------- 2023 11 28 14 03 14 27.685 +17 08 09.82 .18720 1.1684 165.1 22.4 44d 79 2023 11 28 15 03 14 32.878 +17 07 23.09 .18717 1.1684 165.0 22.4 44d 79 2023 11 28 16 03 14 38.075 +17 06 36.35 .18715 1.1683 165.0 22.4 44d 79 2023 11 28 17 03 14 43.277 +17 05 49.62 .18713 1.1683 165.0 22.4 44d 79 2023 11 28 18 03 14 48.484 +17 05 02.89 .18710 1.1682 164.9 22.4 45d 79 2023 11 28 19 03 14 53.694 +17 04 16.15 .18708 1.1682 164.9 22.4 45d 79 2023 11 28 20 03 14 58.910 +17 03 29.41 .18705 1.1681 164.9 22.4 45d 79 2023 11 28 21 03 15 04.129 +17 02 42.67 .18703 1.1681 164.9 22.4 45d 79 2023 11 28 22 03 15 09.354 +17 01 55.93 .18701 1.1681 164.8 22.4 45d 79 2023 11 28 23 03 15 14.582 +17 01 09.18 .18698 1.1680 164.8 22.4 45d 79 2023 11 29 00 03 15 19.816 +17 00 22.44 .18696 1.1680 164.8 22.4 45d 79 2023 11 29 01 03 15 25.053 +16 59 35.70 .18694 1.1679 164.8 22.4 45d 79 2023 11 29 02 03 15 30.295 +16 58 48.95 .18692 1.1679 164.7 22.4 45d 79 2023 11 29 03 03 15 35.542 +16 58 02.21 .18689 1.1678 164.7 22.4 45d 79 2023 11 29 04 03 15 40.792 +16 57 15.46 .18687 1.1678 164.7 22.4 45d 79 2023 11 29 05 03 15 46.048 +16 56 28.72 .18685 1.1677 164.7 22.4 45d 79 2023 11 29 06 03 15 51.307 +16 55 41.97 .18683 1.1677 164.6 22.4 45d 79 2023 11 29 07 03 15 56.572 +16 54 55.22 .18681 1.1676 164.6 22.4 45d 79 2023 11 29 08 03 16 01.840 +16 54 08.48 .18678 1.1676 164.6 22.4 45d 79 2023 11 29 09 03 16 07.113 +16 53 21.73 .18676 1.1675 164.5 22.4 45d 79 2023 11 29 10 03 16 12.390 +16 52 34.99 .18674 1.1675 164.5 22.4 45d 79 2023 11 29 11 03 16 17.672 +16 51 48.25 .18672 1.1674 164.5 22.4 45d 79 2023 11 29 12 03 16 22.958 +16 51 01.50 .18670 1.1674 164.5 22.4 45d 79 2023 11 29 13 03 16 28.249 +16 50 14.76 .18668 1.1673 164.4 22.4 45d 79 2023 11 29 14 03 16 33.543 +16 49 28.02 .18666 1.1673 164.4 22.4 46d 79 2023 11 29 15 03 16 38.843 +16 48 41.28 .18664 1.1672 164.4 22.4 46d 79 2023 11 29 16 03 16 44.146 +16 47 54.55 .18662 1.1672 164.4 22.4 46d 79 2023 11 29 17 03 16 49.454 +16 47 07.81 .18660 1.1672 164.3 22.4 46d 79 2023 11 29 18 03 16 54.766 +16 46 21.08 .18658 1.1671 164.3 22.4 46d 79 2023 11 29 19 03 17 00.083 +16 45 34.35 .18656 1.1671 164.3 22.4 46d 79 2023 11 29 20 03 17 05.404 +16 44 47.62 .18654 1.1670 164.3 22.4 46d 79 2023 11 29 21 03 17 10.729 +16 44 00.89 .18652 1.1670 164.2 22.4 46d 79 2023 11 29 22 03 17 16.059 +16 43 14.17 .18650 1.1669 164.2 22.4 46d 79 2023 11 29 23 03 17 21.393 +16 42 27.44 .18648 1.1669 164.2 22.4 46d 79 2023 11 30 00 03 17 26.731 +16 41 40.73 .18646 1.1668 164.2 22.4 46d 79 2023 11 30 01 03 17 32.074 +16 40 54.01 .18645 1.1668 164.1 22.4 46d 79 2023 11 30 02 03 17 37.421 +16 40 07.30 .18643 1.1667 164.1 22.4 46d 79 2023 11 30 03 03 17 42.772 +16 39 20.59 .18641 1.1667 164.1 22.4 46d 79 2023 11 30 04 03 17 48.128 +16 38 33.88 .18639 1.1667 164.0 22.4 46d 79 2023 11 30 05 03 17 53.488 +16 37 47.18 .18637 1.1666 164.0 22.4 46d 79 2023 11 30 06 03 17 58.852 +16 37 00.48 .18636 1.1666 164.0 22.4 46d 79 2023 11 30 07 03 18 04.220 +16 36 13.79 .18634 1.1665 164.0 22.4 46d 79 2023 11 30 08 03 18 09.593 +16 35 27.10 .18632 1.1665 163.9 22.5 46d 79 2023 11 30 09 03 18 14.970 +16 34 40.41 .18630 1.1664 163.9 22.5 46d 79 2023 11 30 10 03 18 20.352 +16 33 53.73 .18629 1.1664 163.9 22.5 46d 79 2023 11 30 11 03 18 25.737 +16 33 07.05 .18627 1.1663 163.9 22.5 46d 79 2023 11 30 12 03 18 31.127 +16 32 20.38 .18625 1.1663 163.8 22.5 46d 79 2023 11 30 13 03 18 36.521 +16 31 33.71 .18624 1.1663 163.8 22.5 47d 79